Eagle, CO

2:02 PM MDT on August 20, 2017 (GMT -0600)
Eagle County Regional

Weather History for KEGE - December, 2013

Change the Weather History Date:

Wednesday, December 18, 2013

  Actual Average Record
Temperature  
Mean Temperature 18 °F -  
Max Temperature 33 °F 33 °F 57 °F (1980)
Min Temperature 3 °F 4 °F -18 °F (1964)
Degree Days  
Heating Degree Days 47    
Moisture  
Dew Point 12 °F    
Average Humidity 90    
Maximum Humidity 100    
Minimum Humidity 60    
Precipitation  
Precipitation 0.00 in - - ()
Sea Level Pressure  
Sea Level Pressure 30.19 in    
Wind  
Wind Speed 0 mph (ESE)    
Max Wind Speed 6 mph    
Max Gust Speed -    
Visibility 9 miles    
Events Fog    
Averages and records for this station are not official NWS values.
T = Trace of Precipitation, MM = Missing Value Source: NWS Daily Summary

Daily Weather History Graph

Daily Weather History Graph

Search for Another Location

Airport or City:

Trip Planner

Search our weather history database for the weather conditions in past years. The results will help you decide how hot, cold, wet, or windy it might be!

Date:

Astronomy

Dec. 18, 2013 Rise Set
Actual Time 7:23 AM MST 4:45 PM MST
Civil Twilight 6:53 AM MST 5:15 PM MST
Nautical Twilight 6:19 AM MST 5:49 PM MST
Astronomical Twilight 5:46 AM MST 6:22 PM MST
Moon 6:19 PM MST (12/18) 8:05 AM MST (12/18)
Length of Visible Light 10h 22m
Length of Day
9h 22m
Full, 98% of the Moon is Illuminated
Dec 18
Full
Dec 25
Last Quarter
Jan 1
New
Jan 7
First Quarter
Jan 15
Full

Hourly Weather History & Observations

Time (MST) Temp. Windchill Dew Point Humidity Pressure Visibility Wind Dir Wind Speed Gust Speed Precip Events Conditions
12:15 AM 10.4 °F - 10.4 °F 100% 30.36 in 10.0 mi Calm Calm - N/A   Clear
12:35 AM 10.4 °F - 8.6 °F 92% 30.36 in 10.0 mi Calm Calm - N/A   Clear
12:55 AM 10.4 °F - 8.6 °F 92% 30.35 in 10.0 mi Calm Calm - N/A   Clear
1:15 AM 10.4 °F - 8.6 °F 92% 30.35 in 10.0 mi Calm Calm - N/A   Clear
1:35 AM 8.6 °F - 8.6 °F 100% 30.34 in 10.0 mi Calm Calm - N/A   Clear
1:55 AM 8.6 °F 0.1 °F 6.8 °F 92% 30.34 in 10.0 mi East 4.6 mph - N/A   Clear
2:15 AM 8.6 °F - 8.6 °F 100% 30.34 in 10.0 mi Calm Calm - N/A   Clear
2:35 AM 8.6 °F - 6.8 °F 92% 30.33 in 10.0 mi Calm Calm - N/A   Clear
2:55 AM 8.6 °F - 6.8 °F 92% 30.33 in 10.0 mi Calm Calm - N/A   Clear
3:15 AM 6.8 °F - 6.8 °F 100% 30.33 in 10.0 mi Calm Calm - N/A   Clear
3:35 AM 8.6 °F - 6.8 °F 92% 30.31 in 10.0 mi Calm Calm - N/A   Clear
3:55 AM 6.8 °F -2.0 °F 6.8 °F 100% 30.30 in 10.0 mi East 4.6 mph - N/A   Clear
4:15 AM 6.8 °F - 5.0 °F 92% 30.30 in 10.0 mi Calm Calm - N/A   Clear
4:35 AM 6.8 °F - 5.0 °F 92% 30.29 in 10.0 mi Calm Calm - N/A   Clear
4:55 AM 6.8 °F - 5.0 °F 92% 30.29 in 10.0 mi Calm Calm - N/A   Clear
5:15 AM 6.8 °F - 3.2 °F 85% 30.29 in 10.0 mi Calm Calm - N/A   Partly Cloudy
5:35 AM 5.0 °F - 3.2 °F 92% 30.28 in 10.0 mi Calm Calm - N/A   Scattered Clouds
5:55 AM 5.0 °F -2.1 °F 3.2 °F 92% 30.28 in 10.0 mi ESE 3.5 mph - N/A   Mostly Cloudy
6:15 AM 5.0 °F - 3.2 °F 92% 30.28 in 10.0 mi Calm Calm - N/A   Overcast
6:35 AM 5.0 °F - 3.2 °F 92% 30.28 in 10.0 mi Calm Calm - N/A   Overcast
6:50 AM 3.2 °F - 3.2 °F 100% 30.28 in 5.0 mi Calm Calm - N/A   Overcast
7:50 AM 5.0 °F - 3.2 °F 92% 30.27 in 5.0 mi Calm Calm - N/A   Overcast
8:30 AM 6.8 °F - 3.2 °F 85% 30.26 in 0.2 mi Calm Calm - N/A Fog Light Freezing Fog
8:50 AM 6.8 °F - 5.0 °F 92% 30.26 in 1.0 mi Calm Calm - N/A   Overcast
9:50 AM 12.2 °F - 10.4 °F 92% 30.24 in 0.2 mi Calm Calm - N/A Fog Light Freezing Fog
10:08 AM 15.8 °F - 15.8 °F 100% 30.24 in 5.0 mi Calm Calm - N/A   Partly Cloudy
10:50 AM 21.2 °F - 19.4 °F 93% 30.21 in 10.0 mi Calm Calm - N/A   Partly Cloudy
11:50 AM 30.2 °F - 26.6 °F 86% 30.16 in 10.0 mi Calm Calm - N/A   Partly Cloudy
12:55 PM 30.2 °F - 21.2 °F 69% 30.11 in 10.0 mi Calm Calm - N/A   Partly Cloudy
1:50 PM 33.8 °F - 21.2 °F 60% 30.07 in 10.0 mi Calm Calm - N/A   Scattered Clouds
2:50 PM 28.4 °F - 19.4 °F 69% 30.04 in 10.0 mi Calm Calm - N/A   Partly Cloudy
3:50 PM 28.4 °F - 19.4 °F 69% 30.03 in 10.0 mi Calm Calm - N/A   Scattered Clouds
4:50 PM 24.8 °F - 19.4 °F 80% 30.02 in 10.0 mi Calm Calm - N/A   Scattered Clouds
5:50 PM 21.2 °F - 17.6 °F 86% 30.02 in 10.0 mi Calm Calm - N/A   Clear
6:50 PM 21.2 °F 14.9 °F 19.4 °F 93% 30.01 in 10.0 mi Variable 4.6 mph - N/A   Clear
7:50 PM 24.8 °F - 19.4 °F 80% 30.00 in 10.0 mi Calm Calm - N/A   Clear
8:50 PM 23.0 °F - 19.4 °F 86% 29.99 in 10.0 mi Calm Calm - N/A   Overcast
9:50 PM 23.0 °F - 21.2 °F 93% 29.95 in 10.0 mi Calm Calm - N/A   Scattered Clouds
10:50 PM 21.2 °F - 19.4 °F 93% 29.92 in 10.0 mi Calm Calm - N/A   Overcast
11:15 PM 21.2 °F 13.6 °F 19.4 °F 93% 29.90 in 10.0 mi East 5.8 mph - N/A   Overcast
11:35 PM 19.4 °F - 17.6 °F 93% 29.89 in 10.0 mi Calm Calm - N/A   Scattered Clouds
11:55 PM 19.4 °F - 17.6 °F 93% 29.88 in 10.0 mi Calm Calm - N/A   Mostly Cloudy